Sigfox identifier Datetime Temperature Humidity SNR
002EEC62 2019-04-23 14:51:14 15.8 33 22.6
002EEC62 2019-04-23 14:17:59 15.7 33 22.4
002EEC62 2019-04-23 13:44:46 15.7 33 22
002EEC62 2019-04-23 13:11:34 15.6 33 21.5
002EEC62 2019-04-23 12:38:20 15.6 33 21.3
002EEC62 2019-04-23 12:05:07 15.6 33 20.7
002EEC62 2019-04-23 11:31:55 15.6 32 20.4
002EEC62 2019-04-23 10:58:42 15.6 32 20.1
002EEC62 2019-04-23 10:25:31 15.5 32 20
002EEC62 2019-04-23 09:52:19 15.5 32 19.5
002EEC62 2019-04-23 09:19:07 15.6 32 18.8
002EEC62 2019-04-23 08:45:54 15.5 32 17.8
002EEC62 2019-04-23 08:12:42 15.6 32 16.7
002EEC62 2019-04-23 07:39:30 15.6 32 16.8
002EEC62 2019-04-23 07:06:17 15.5 32 16.8
002EEC62 2019-04-23 06:33:05 15.5 32 16.8
002EEC62 2019-04-23 05:59:52 15.6 32 16.8
002EEC62 2019-04-23 05:26:40 15.6 32 16.7
002EEC62 2019-04-23 04:53:28 15.6 32 16.6
002EEC62 2019-04-23 04:20:16 15.6 32 16.6
002EEC62 2019-04-23 03:47:03 15.6 32 16.7
002EEC62 2019-04-23 03:13:51 15.6 32 16.8
002EEC62 2019-04-23 02:40:38 15.7 32 16.8
002EEC62 2019-04-23 02:07:25 15.7 32 16.9
002EEC62 2019-04-23 01:34:12 15.7 32 16.9
002EEC62 2019-04-23 01:00:59 15.7 32 17
002EEC62 2019-04-23 00:27:46 15.8 32 17.2
002EEC62 2019-04-22 23:54:33 15.7 32 17.2
002EEC62 2019-04-22 23:21:20 15.8 32 17.3
002EEC62 2019-04-22 22:48:06 15.8 32 17.3
002EEC62 2019-04-22 22:14:54 15.8 32 17.3
002EEC62 2019-04-22 21:41:41 15.8 32 17.3
002EEC62 2019-04-22 21:08:29 15.8 32 17.3
002EEC62 2019-04-22 20:35:15 15.8 32 17.3
002EEC62 2019-04-22 20:02:02 15.8 32 17.2
002EEC62 2019-04-22 19:28:49 15.8 32 17.4
002EEC62 2019-04-22 18:55:37 15.8 32 17.4
002EEC62 2019-04-22 18:22:25 15.8 32 17.4
002EEC62 2019-04-22 17:49:12 15.7 32 17.1
002EEC62 2019-04-22 17:16:01 15.7 32 17.2
002EEC62 2019-04-22 16:42:49 15.7 32 17.2
002EEC62 2019-04-22 16:09:36 15.7 32 17.2
002EEC62 2019-04-22 15:36:24 15.7 32 17.1
002EEC62 2019-04-22 15:03:12 15.5 32 17.2
002EEC62 2019-04-22 14:29:59 15.6 32 17.2
002EEC62 2019-04-22 13:56:48 15.6 32 17.1
002EEC62 2019-04-22 13:23:35 15.6 32 17.1
002EEC62 2019-04-22 12:50:22 15.6 32 17.2
002EEC62 2019-04-22 12:17:10 15.5 32 17
002EEC62 2019-04-22 11:43:57 15.6 32 17
002EEC62 2019-04-22 11:10:45 15.5 32 17
002EEC62 2019-04-22 10:37:31 15.6 31 16.9
002EEC62 2019-04-22 10:04:18 15.6 31 16.8
002EEC62 2019-04-22 09:31:05 15.6 31 16.8
002EEC62 2019-04-22 08:57:52 15.5 31 16.7
002EEC62 2019-04-22 08:24:38 15.5 31 16.7
002EEC62 2019-04-22 07:51:26 15.6 31 16.7
002EEC62 2019-04-22 07:18:13 15.6 31 16.4
002EEC62 2019-04-22 06:44:59 15.6 31 16.4
002EEC62 2019-04-22 06:11:45 15.5 31 16.3
002EEC62 2019-04-22 05:38:31 15.5 31 16.3
002EEC62 2019-04-22 05:05:17 15.6 31 16.3
002EEC62 2019-04-22 04:32:03 15.5 31 16.4
002EEC62 2019-04-22 03:58:50 15.5 31 16.5
002EEC62 2019-04-22 03:25:37 15.5 31 16.4
002EEC62 2019-04-22 02:52:24 15.5 31 16.5
002EEC62 2019-04-22 02:19:11 15.5 31 16.5
002EEC62 2019-04-22 01:45:58 15.5 31 16.6
002EEC62 2019-04-22 01:12:46 15.5 31 16.6
002EEC62 2019-04-22 00:39:33 15.5 31 16.7
002EEC62 2019-04-22 00:06:20 15.5 31 16.8
002EEC62 2019-04-21 23:33:07 15.5 31 16.8
002EEC62 2019-04-21 22:59:57 15.5 31 16.8
002EEC62 2019-04-21 22:26:41 15.5 31 16.9
002EEC62 2019-04-21 21:53:28 15.5 31 16.9
002EEC62 2019-04-21 21:20:15 15.5 31 17
002EEC62 2019-04-21 20:47:02 15.5 31 17.1
002EEC62 2019-04-21 20:13:49 15.5 31 17.2
002EEC62 2019-04-21 19:40:35 15.4 31 17.3
002EEC62 2019-04-21 19:07:22 15.5 31 17.3
002EEC62 2019-04-21 18:34:09 15.5 31 17.3
002EEC62 2019-04-21 18:00:56 15.5 31 17.4
002EEC62 2019-04-21 17:27:43 15.4 31 17.5
002EEC62 2019-04-21 16:54:29 15.5 31 17.5
002EEC62 2019-04-21 16:21:17 15.4 31 17.5
002EEC62 2019-04-21 15:48:04 15.4 31 17.5
002EEC62 2019-04-21 15:14:50 15.4 31 17.6
002EEC62 2019-04-21 14:41:37 15.4 30 17.6
002EEC62 2019-04-21 14:08:24 15.5 30 17.6
002EEC62 2019-04-21 13:35:10 15.5 30 17.6
002EEC62 2019-04-21 13:01:57 15.5 30 17.5
002EEC62 2019-04-21 12:28:44 15.5 30 17.4
002EEC62 2019-04-21 11:55:31 15.5 30 17.4
002EEC62 2019-04-21 11:22:19 15.5 30 17.3
002EEC62 2019-04-21 10:49:06 15.6 30 17.1
002EEC62 2019-04-21 10:15:54 15.6 30 17
002EEC62 2019-04-21 09:42:41 15.6 30 16.9
002EEC62 2019-04-21 09:09:29 15.6 30 16.7
002EEC62 2019-04-21 08:36:16 15.6 30 16.7
002EEC62 2019-04-21 08:03:04 15.5 30 16.5
002EEC62 2019-04-21 07:29:52 15.6 30 16.4
002EEC62 2019-04-21 06:56:39 15.6 30 16.3
002EEC62 2019-04-21 06:23:26 15.6 30 16.2
002EEC62 2019-04-21 05:50:13 15.6 30 16.1
002EEC62 2019-04-21 05:17:01 15.5 30 16.2
002EEC62 2019-04-21 04:43:48 15.6 30 16.1
002EEC62 2019-04-21 04:10:35 15.6 30 16.2
002EEC62 2019-04-21 03:37:23 15.6 30 16.1
002EEC62 2019-04-21 03:04:10 15.5 30 15.9
002EEC62 2019-04-21 02:30:57 15.5 30 15.8
002EEC62 2019-04-21 01:57:44 15.6 30 15.8
002EEC62 2019-04-21 01:24:31 15.6 30 15.6
002EEC62 2019-04-21 00:51:19 15.6 30 15.6
002EEC62 2019-04-21 00:18:06 15.6 30 15.7
002EEC62 2019-04-20 23:44:52 15.6 30 15.8
002EEC62 2019-04-20 23:11:39 15.6 30 15.9
002EEC62 2019-04-20 22:38:27 15.5 30 16.1
002EEC62 2019-04-20 22:05:14 15.6 30 16.2
002EEC62 2019-04-20 21:32:02 15.5 30 16.4
002EEC62 2019-04-20 20:58:48 15.6 30 16.5
002EEC62 2019-04-20 20:25:35 15.6 30 16.5
002EEC62 2019-04-20 19:52:22 15.6 30 16.6
002EEC62 2019-04-20 19:19:10 15.6 30 16.7
002EEC62 2019-04-20 18:45:57 15.6 30 16.8
002EEC62 2019-04-20 18:12:44 15.6 30 16.9
002EEC62 2019-04-20 17:39:32 15.6 29 16.9
002EEC62 2019-04-20 17:06:19 15.5 29 16.9
002EEC62 2019-04-20 16:33:06 15.6 29 16.9
002EEC62 2019-04-20 15:59:51 15.6 29 17
002EEC62 2019-04-20 15:26:38 15.6 29 17
002EEC62 2019-04-20 14:53:26 15.6 29 17
002EEC62 2019-04-20 14:20:15 15.6 29 17
002EEC62 2019-04-20 13:47:00 15.6 29 16.9
002EEC62 2019-04-20 13:13:47 15.5 29 16.9
002EEC62 2019-04-20 12:40:34 15.7 29 17
002EEC62 2019-04-20 12:07:21 15.6 29 16.9
002EEC62 2019-04-20 11:34:09 15.7 29 16.9
002EEC62 2019-04-20 11:00:58 15.7 29 16.9
002EEC62 2019-04-20 10:27:43 15.7 29 16.7
002EEC62 2019-04-20 09:54:30 15.7 29 16.5
002EEC62 2019-04-20 09:21:17 15.8 29 16.5
002EEC62 2019-04-20 08:48:04 15.8 29 16.4
002EEC62 2019-04-20 08:14:51 15.7 29 16.3
002EEC62 2019-04-20 07:41:38 15.8 29 16.1
002EEC62 2019-04-20 07:08:26 15.8 29 16.1
002EEC62 2019-04-20 06:35:13 15.8 29 16.3
002EEC62 2019-04-20 06:02:00 15.8 29 16.3
002EEC62 2019-04-20 05:28:48 15.8 29 16.2
002EEC62 2019-04-20 04:55:34 15.9 29 16.2
002EEC62 2019-04-20 04:22:21 15.9 29 16.3
002EEC62 2019-04-20 03:49:07 16 29 16.4
002EEC62 2019-04-20 03:15:54 16 29 16.5
002EEC62 2019-04-20 02:42:42 16 29 16.6
002EEC62 2019-04-20 02:09:30 16 29 16.5
002EEC62 2019-04-20 01:36:17 16 29 16.7
002EEC62 2019-04-20 01:03:04 16 29 16.6
002EEC62 2019-04-20 00:29:51 16 29 16.6
002EEC62 2019-04-19 23:56:39 16 29 17
002EEC62 2019-04-19 23:23:27 16 29 17
002EEC62 2019-04-19 22:50:14 16.1 28 17.1
002EEC62 2019-04-19 22:17:02 16 28 17.3
002EEC62 2019-04-19 21:43:50 16.1 28 17.4
002EEC62 2019-04-19 21:10:38 16.1 28 17.8
002EEC62 2019-04-19 20:37:26 16.1 28 18
002EEC62 2019-04-19 20:04:14 16.1 28 18.1
002EEC62 2019-04-19 19:31:00 16 28 18.2
002EEC62 2019-04-19 18:57:47 16 28 18.3
002EEC62 2019-04-19 18:24:34 16 28 18.4
002EEC62 2019-04-19 17:51:24 16 28 18.5
002EEC62 2019-04-19 17:18:12 16 28 18.5
002EEC62 2019-04-19 16:44:58 16 28 18.6
002EEC62 2019-04-19 16:11:48 16 28 18.7
002EEC62 2019-04-19 15:38:34 16 28 18.7
002EEC62 2019-04-19 15:05:22 16 28 18.7
002EEC62 2019-04-19 14:32:10 16 28 18.7
002EEC62 2019-04-19 13:58:57 16 28 18.6
002EEC62 2019-04-19 13:25:44 16 28 18.6
002EEC62 2019-04-19 12:52:31 16 28 18.7
002EEC62 2019-04-19 12:19:19 16 28 18.6
002EEC62 2019-04-19 11:46:07 16 28 18.7
002EEC62 2019-04-19 11:12:55 16 28 18.6
002EEC62 2019-04-19 10:39:43 16 28 18.5
002EEC62 2019-04-19 10:06:31 16 28 18.5
002EEC62 2019-04-19 09:33:19 16 28 18.5
002EEC62 2019-04-19 09:00:07 16 28 18.4
002EEC62 2019-04-19 08:26:54 16 27 19.2
002EEC62 2019-04-19 07:53:42 16 27 19.7
002EEC62 2019-04-19 07:20:31 16.1 27 19.9
002EEC62 2019-04-19 06:47:19 16.2 27 20.1
002EEC62 2019-04-19 06:14:07 16.2 27 20.6
002EEC62 2019-04-19 05:40:55 16.2 27 21
002EEC62 2019-04-19 05:07:43 16.2 27 21.4
002EEC62 2019-04-19 04:34:31 16.2 27 21.8
002EEC62 2019-04-19 04:01:19 16.2 27 22.1
002EEC62 2019-04-19 03:28:08 16.3 27 22.3
002EEC62 2019-04-19 02:54:56 16.4 27 22.4
002EEC62 2019-04-19 02:21:44 16.4 27 22.7
002EEC62 2019-04-19 01:48:32 16.4 27 22.7
002EEC62 2019-04-19 01:15:20 16.4 27 22.9
002EEC62 2019-04-19 00:42:08 16.4 27 23
002EEC62 2019-04-19 00:08:56 16.4 27 23
002EEC62 2019-04-18 23:35:43 16.5 27 23.2
002EEC62 2019-04-18 23:02:30 16.6 27 23.4
002EEC62 2019-04-18 22:29:17 16.5 27 23.5
002EEC62 2019-04-18 21:56:05 16.5 27 23.7
002EEC62 2019-04-18 21:22:53 16.6 27 23.7
002EEC62 2019-04-18 20:49:40 16.6 27 23.9
002EEC62 2019-04-18 20:16:28 16.4 27 23.9
002EEC62 2019-04-18 19:43:14 16.4 27 23.9
002EEC62 2019-04-18 19:10:01 16.4 27 23.9
002EEC62 2019-04-18 18:36:48 16.4 27 23.7
002EEC62 2019-04-18 18:03:36 16.4 27 23.5
002EEC62 2019-04-18 17:30:23 16.4 27 23.3
002EEC62 2019-04-18 16:57:10 16.4 27 23.2
002EEC62 2019-04-18 16:23:57 16.4 27 23
002EEC62 2019-04-18 15:50:44 16.4 26 22.7
002EEC62 2019-04-18 15:17:31 16.4 26 22.1
002EEC62 2019-04-18 14:44:18 16.4 26 21.9
002EEC62 2019-04-18 14:11:05 16.4 26 21.5
002EEC62 2019-04-18 13:37:52 16.3 26 21.2
002EEC62 2019-04-18 13:04:39 16.4 26 21.1
002EEC62 2019-04-18 12:31:27 16.4 26 21.3
002EEC62 2019-04-18 11:58:14 16.4 26 21.4
002EEC62 2019-04-18 11:25:01 16.4 26 21.6
002EEC62 2019-04-18 10:51:47 16.4 26 21.7
002EEC62 2019-04-18 10:18:34 16.4 26 21.8
002EEC62 2019-04-18 09:45:23 16.4 26 21.7
002EEC62 2019-04-18 09:12:11 16.4 26 21.7
002EEC62 2019-04-18 08:38:59 16.4 26 21.6
002EEC62 2019-04-18 08:05:46 16.4 26 21.6
002EEC62 2019-04-18 07:32:33 16.4 26 21.4
002EEC62 2019-04-18 06:59:22 16.4 25 21.7
002EEC62 2019-04-18 06:26:11 16.4 25 21.9
002EEC62 2019-04-18 05:52:59 16.5 25 22.3
002EEC62 2019-04-18 05:19:47 16.6 25 22.4
002EEC62 2019-04-18 04:46:34 16.6 25 22.5
002EEC62 2019-04-18 04:13:22 16.6 25 22.7
002EEC62 2019-04-18 03:40:10 16.6 25 22.7
002EEC62 2019-04-18 03:06:58 16.8 25 22.8
002EEC62 2019-04-18 02:33:47 16.8 25 22.8
002EEC62 2019-04-18 02:00:36 16.8 25 22.8
002EEC62 2019-04-18 00:54:13 16.9 25 22.8
002EEC62 2019-04-18 00:21:03 17 25 22.9
002EEC62 2019-04-17 23:47:49 17 25 22.9
002EEC62 2019-04-17 23:14:38 16.9 25 22.7
002EEC62 2019-04-17 22:41:26 17 25 22.6
002EEC62 2019-04-17 22:08:14 17.1 25 22.3
002EEC62 2019-04-17 21:35:02 17 25 22.1
002EEC62 2019-04-17 21:01:50 17.1 25 21.9
002EEC62 2019-04-17 20:28:38 17 25 21.7
002EEC62 2019-04-17 19:55:25 17.1 25 21.4
002EEC62 2019-04-17 19:22:13 17.1 24 21.4
002EEC62 2019-04-17 18:49:02 17.1 24 21.4
002EEC62 2019-04-17 18:15:52 17.1 24 21.5
002EEC62 2019-04-17 17:42:37 17.2 24 21.4
002EEC62 2019-04-17 17:09:26 17.2 24 21.2
002EEC62 2019-04-17 16:36:14 17.3 24 21
002EEC62 2019-04-17 16:03:03 17.3 24 21.8
002EEC62 2019-04-17 15:29:51 17.3 24 21.8
002EEC62 2019-04-17 14:56:40 17.4 24 21.6
002EEC62 2019-04-17 14:23:27 17.5 24 21.5
002EEC62 2019-04-17 13:50:18 17.5 24 21.4
002EEC62 2019-04-17 13:17:06 17.5 24 21.3
002EEC62 2019-04-17 12:43:54 17.5 24 21.4
002EEC62 2019-04-17 12:10:44 17.6 24 21.2
002EEC62 2019-04-17 11:37:32 17.7 24 22.3
002EEC62 2019-04-17 11:04:22 17.7 23 22.3
002EEC62 2019-04-17 10:31:10 17.9 23 22.2
002EEC62 2019-04-17 09:57:58 17.9 23 22.2
002EEC62 2019-04-17 09:24:47 17.9 23 22.2
002EEC62 2019-04-17 08:51:37 18 23 22.2
002EEC62 2019-04-17 08:18:26 18.1 23 22.2
002EEC62 2019-04-17 07:45:14 18.1 23 22.2
002EEC62 2019-04-17 07:12:03 18.3 23 22.2
002EEC62 2019-04-17 06:38:51 18.3 23 22.3
002EEC62 2019-04-17 06:05:40 18.4 23 22.4
002EEC62 2019-04-17 05:32:29 18.5 23 22.4
002EEC62 2019-04-17 04:59:18 18.6 23 22.2
002EEC62 2019-04-17 04:26:07 18.6 23 22.2
002EEC62 2019-04-17 03:52:55 18.6 23 22.5
002EEC62 2019-04-17 03:19:44 18.7 23 22.4
002EEC62 2019-04-17 02:46:33 18.8 23 22.3
002EEC62 2019-04-17 02:13:21 18.8 23 21.2
002EEC62 2019-04-17 01:40:11 19 23 21
002EEC62 2019-04-17 01:07:00 19 23 21
002EEC62 2019-04-17 00:33:48 19.1 23 21
002EEC62 2019-04-17 00:00:37 19.2 23 20.9
002EEC62 2019-04-16 23:27:25 19.2 23 20.8
002EEC62 2019-04-16 22:54:13 19.4 23 20.6
002EEC62 2019-04-16 22:21:02 19.4 23 20.7
002EEC62 2019-04-16 21:47:50 19.6 23 19
002EEC62 2019-04-16 21:14:40 19.6 23 19.2
002EEC62 2019-04-16 20:41:29 19.7 23 19.2
002EEC62 2019-04-16 20:08:18 19.8 23 19.2
002EEC62 2019-04-16 19:35:05 19.9 23 19.4
002EEC62 2019-04-16 19:01:56 20.1 22 19.3
002EEC62 2019-04-16 18:28:42 20.2 22 19.4
002EEC62 2019-04-16 17:55:31 20.3 22 19.1
002EEC62 2019-04-16 17:22:20 20.5 22 19.4
002EEC62 2019-04-16 16:49:07 20.6 22 19.1
002EEC62 2019-04-16 16:15:56 20.7 23 18.7
002EEC62 2019-04-16 15:42:44 20.7 23 18.7
002EEC62 2019-04-16 15:09:33 20.9 23 18.5
002EEC62 2019-04-16 14:36:21 20.9 23 18.4
002EEC62 2019-04-16 14:03:09 20.9 23 17.4
002EEC62 2019-04-16 13:29:58 20.9 23 17.2
002EEC62 2019-04-16 12:23:36 20.9 23 17.3
002EEC62 2019-04-16 11:50:25 20.9 23 17.4
002EEC62 2019-04-16 11:17:14 20.7 23 17.3
002EEC62 2019-04-16 10:44:02 20.8 23 17.8
002EEC62 2019-04-16 10:10:51 20.8 23 17.2
002EEC62 2019-04-16 09:37:42 20.8 23 17.2
002EEC62 2019-04-16 09:04:28 20.8 23 17.2
002EEC62 2019-04-16 08:31:17 20.8 23 17.3
002EEC62 2019-04-16 07:58:06 20.8 23 17.1
002EEC62 2019-04-16 07:24:53 20.8 23 17.2
002EEC62 2019-04-16 06:51:42 20.8 22 17
002EEC62 2019-04-16 06:18:30 20.9 22 16.8
002EEC62 2019-04-16 05:45:17 20.9 22 16.8
002EEC62 2019-04-16 05:12:04 20.9 22 16.3
002EEC62 2019-04-16 04:38:52 20.9 22 16.3
002EEC62 2019-04-16 04:05:40 20.9 22 16
002EEC62 2019-04-16 03:32:28 20.9 22 16.5
002EEC62 2019-04-16 02:59:16 20.9 22 15.8
002EEC62 2019-04-16 02:26:04 20.9 22 15.8
002EEC62 2019-04-16 01:52:53 20.9 22 16.4
002EEC62 2019-04-16 01:19:42 20.9 22 16.7
002EEC62 2019-04-16 00:46:28 20.9 22 17.1
002EEC62 2019-04-16 00:13:16 20.9 22 17.5
002EEC62 2019-04-15 23:40:04 21 21 17.9
002EEC62 2019-04-15 23:06:52 21.1 21 18.7
002EEC62 2019-04-15 22:33:40 21.1 21 19.1
002EEC62 2019-04-15 22:00:31 21 21 19.3
002EEC62 2019-04-15 21:27:16 21.1 21 20.1
002EEC62 2019-04-15 20:54:04 21.1 21 20.2
002EEC62 2019-04-15 20:20:51 21.2 21 20.5
002EEC62 2019-04-15 19:47:39 21.3 21 20.8
002EEC62 2019-04-15 19:14:27 21.3 20 21
002EEC62 2019-04-15 18:41:17 21.3 20 21.3
002EEC62 2019-04-15 18:08:05 21.4 20 21.8
002EEC62 2019-04-15 17:34:53 21.5 20 22.1
002EEC62 2019-04-15 17:01:42 21.5 20 22.4
002EEC62 2019-04-15 16:28:29 21.6 20 22.6
002EEC62 2019-04-15 15:55:18 21.7 20 23
002EEC62 2019-04-15 15:22:07 21.8 19 23.4
002EEC62 2019-04-15 14:48:57 21.9 19 23.6
002EEC62 2019-04-15 14:15:44 22 19 23.7
002EEC62 2019-04-15 13:42:34 22.2 19 23.8
002EEC62 2019-04-15 13:09:23 22.2 19 24.1
002EEC62 2019-04-15 12:36:12 22.3 18 24.7
002EEC62 2019-04-15 12:03:02 22.4 17 24.8
002EEC62 2019-04-15 11:29:51 22.2 17 24.9
002EEC62 2019-04-15 10:56:40 22.2 17 25.1
002EEC62 2019-04-15 10:23:30 22.2 18 25.2
002EEC62 2019-04-15 09:50:20 22.2 18 25.2
002EEC62 2019-04-15 09:17:09 22 18 25.1
002EEC62 2019-04-15 08:43:58 22 18 25.2
002EEC62 2019-04-15 08:10:48 21.9 18 25.2
002EEC62 2019-04-15 07:37:37 21.9 18 25.1
002EEC62 2019-04-15 07:04:25 21.9 18 25.1
002EEC62 2019-04-15 06:31:15 21.8 18 25.1
002EEC62 2019-04-15 05:58:03 21.8 18 25.1
002EEC62 2019-04-15 05:24:52 21.8 18 25.1
002EEC62 2019-04-15 04:51:41 21.8 18 25.2
002EEC62 2019-04-15 04:18:30 21.8 18 25
002EEC62 2019-04-15 03:45:20 21.8 18 25
002EEC62 2019-04-15 03:12:09 21.8 19 24.9
002EEC62 2019-04-15 02:38:58 21.8 19 24.8
002EEC62 2019-04-15 02:05:47 21.8 19 25.2
002EEC62 2019-04-15 01:32:36 21.8 19 25
002EEC62 2019-04-15 00:59:25 21.8 19 24.9
002EEC62 2019-04-15 00:26:13 21.8 19 25
002EEC62 2019-04-14 23:53:02 21.8 19 25
002EEC62 2019-04-14 23:19:50 21.8 19 24.9
002EEC62 2019-04-14 22:46:38 21.9 19 24.5
002EEC62 2019-04-14 22:13:27 21.9 19 24.4
002EEC62 2019-04-14 21:40:15 21.9 19 24.4
002EEC62 2019-04-14 21:07:04 21.9 19 24.2
002EEC62 2019-04-14 20:33:53 21.9 19 24.2
002EEC62 2019-04-14 20:00:41 21.9 19 24.3
002EEC62 2019-04-14 19:27:29 21.9 19 24.2
002EEC62 2019-04-14 18:54:18 22 19 24.4
002EEC62 2019-04-14 18:21:06 21.9 19 24.5
002EEC62 2019-04-14 17:47:54 21.9 19 24.5
002EEC62 2019-04-14 17:14:43 21.9 19 25
002EEC62 2019-04-14 16:41:32 21.9 19 25
002EEC62 2019-04-14 16:08:20 21.9 19 25
002EEC62 2019-04-14 15:35:08 21.9 19 25.1
002EEC62 2019-04-14 15:01:56 21.9 19 25
002EEC62 2019-04-14 14:28:45 21.9 19 25.3
002EEC62 2019-04-14 13:55:32 21.9 19 25.2
002EEC62 2019-04-14 13:22:20 21.9 19 25.3
002EEC62 2019-04-14 12:49:08 21.9 19 25.3
002EEC62 2019-04-14 12:15:55 21.9 20 25
002EEC62 2019-04-14 11:42:44 21.9 20 25
002EEC62 2019-04-14 11:09:32 21.9 20 25.1
002EEC62 2019-04-14 10:36:19 21.9 20 25
002EEC62 2019-04-14 10:03:05 21.9 20 25
002EEC62 2019-04-14 09:29:52 21.9 19 25.1
002EEC62 2019-04-14 08:56:38 21.9 19 25.1
002EEC62 2019-04-14 08:23:25 21.9 19 25.1
002EEC62 2019-04-14 07:50:11 21.9 19 25.1
002EEC62 2019-04-14 07:16:58 21.9 19 25.1
002EEC62 2019-04-14 06:43:44 21.8 19 25.1
002EEC62 2019-04-14 06:10:29 21.9 19 25.1
002EEC62 2019-04-14 05:37:15 21.9 19 25.2
002EEC62 2019-04-14 05:04:01 21.9 19 24.9
002EEC62 2019-04-14 04:30:47 21.9 19 25
002EEC62 2019-04-14 03:57:34 21.9 19 25.1
002EEC62 2019-04-14 03:24:19 21.9 19 24.6
002EEC62 2019-04-14 02:51:05 21.9 19 24.6
002EEC62 2019-04-14 02:17:51 21.9 19 24.6
002EEC62 2019-04-14 01:44:36 22 19 24.4
002EEC62 2019-04-14 01:11:22 22 19 24.5
002EEC62 2019-04-14 00:38:08 22 19 24.4
002EEC62 2019-04-14 00:04:54 22 19 24.4
002EEC62 2019-04-13 23:31:38 22 19 24.5
002EEC62 2019-04-13 22:58:24 22 19 24.5
002EEC62 2019-04-13 22:25:09 22 19 24.5
002EEC62 2019-04-13 21:51:56 22.1 19 24.5
002EEC62 2019-04-13 21:18:42 22.1 19 24.4
002EEC62 2019-04-13 20:45:29 22.2 18 24.4
002EEC62 2019-04-13 20:12:15 22.2 19 24.4
002EEC62 2019-04-13 19:39:01 22.2 19 24.3
002EEC62 2019-04-13 19:05:47 22.2 19 24.2
002EEC62 2019-04-13 18:32:33 22.2 19 24.3
002EEC62 2019-04-13 17:59:19 22.2 19 24.3
002EEC62 2019-04-13 17:26:04 22.2 19 24.4
002EEC62 2019-04-13 16:52:52 22.2 19 24.4
002EEC62 2019-04-13 16:19:36 22.2 19 24.6
002EEC62 2019-04-13 15:46:21 22.4 19 24.6
002EEC62 2019-04-13 15:13:06 22.4 19 24.9
002EEC62 2019-04-13 14:39:51 22.4 19 24.7
002EEC62 2019-04-13 14:06:37 22.4 19 24.6
002EEC62 2019-04-13 13:33:22 22.4 19 24.8
002EEC62 2019-04-13 13:00:08 22.4 19 24.8
002EEC62 2019-04-13 12:26:54 22.4 19 24.9
002EEC62 2019-04-13 11:53:39 22.4 19 24.9
002EEC62 2019-04-13 11:20:25 22.4 19 24.9
002EEC62 2019-04-13 10:47:11 22.4 19 24.8
002EEC62 2019-04-13 10:13:57 22.3 19 24.9
002EEC62 2019-04-13 09:40:44 22.4 19 24.9
002EEC62 2019-04-13 09:07:30 22.3 19 24.9
002EEC62 2019-04-13 08:34:16 22.4 19 24.8
002EEC62 2019-04-13 08:01:02 22.4 18 24.8
002EEC62 2019-04-13 07:27:48 22.3 18 24.9
002EEC62 2019-04-13 06:54:34 22.4 18 24.9
002EEC62 2019-04-13 06:21:20 22.4 18 25.2
002EEC62 2019-04-13 05:48:07 22.4 18 25.2
002EEC62 2019-04-13 05:14:52 22.4 18 25.1
002EEC62 2019-04-13 04:41:38 22.4 18 25
002EEC62 2019-04-13 04:08:25 22.3 18 25.4
002EEC62 2019-04-13 03:35:12 22.4 18 25.7
002EEC62 2019-04-13 03:02:00 22.4 19 25.7
002EEC62 2019-04-13 02:28:47 22.4 19 25.5
002EEC62 2019-04-13 01:55:33 22.4 19 25.5
002EEC62 2019-04-13 01:22:20 22.6 19 25.4
002EEC62 2019-04-13 00:49:07 22.6 19 25.4
002EEC62 2019-04-13 00:15:54 22.6 19 25.5
002EEC62 2019-04-12 23:42:41 22.6 19 25.4
002EEC62 2019-04-12 23:09:28 22.6 19 25.4
002EEC62 2019-04-12 22:36:13 22.8 19 25.4
002EEC62 2019-04-12 22:03:00 22.8 19 25.5
002EEC62 2019-04-12 21:29:48 22.8 20 25.5
002EEC62 2019-04-12 20:56:34 22.8 20 25.6
002EEC62 2019-04-12 20:23:21 22.8 19 25.6
002EEC62 2019-04-12 19:50:07 22.8 19 25.6
002EEC62 2019-04-12 19:16:53 22.8 19 25.7
002EEC62 2019-04-12 18:43:40 22.8 18 26
002EEC62 2019-04-12 18:10:27 23 18 26.2
002EEC62 2019-04-12 17:37:14 23 18 26.3
002EEC62 2019-04-12 17:04:00 23 18 26.7
002EEC62 2019-04-12 16:30:46 23 19 25.9
002EEC62 2019-04-12 15:57:32 22.9 19 26.3
002EEC62 2019-04-12 15:24:18 22.8 19 26.9
002EEC62 2019-04-12 14:51:05 22.6 20 27.7
002EEC62 2019-04-12 14:17:52 22.3 20 26.5
002EEC62 2019-04-12 13:44:38 21.9 21 22.2
002EEC62 2019-04-12 13:11:26 21 23 11.2